• In Hungary
  • List of Countries
  • For 7 days
  • Water Temperature
  • Satellite Maps
  • Weather Map
  • News
  • Weather Widgets
  • user-avatar
    Login

    Hourly Weather Lugovoy

    Today, 26 May, Saturday

    Time Temperature Precipitation Wind Pressure Humidity
    00:00 +5°C° 0 mm 5 mps 760 mmHg 56%
    01:00 +5°C° 0 mm 5 mps 761 mmHg 58%
    02:00 +3°C° 0 mm 5 mps 761 mmHg 59%
    03:00 +3°C° 0 mm 5 mps 762 mmHg 61%
    04:00 +3°C° 0 mm 6 mps 762 mmHg 60%
    05:00 +4°C° 0 mm 6 mps 762 mmHg 59%
    06:00 +4°C° 0 mm 7 mps 763 mmHg 58%
    07:00 +5°C° 0 mm 7 mps 763 mmHg 54%
    08:00 +6°C° 0 mm 7 mps 764 mmHg 50%
    09:00 +6°C° 0 mm 8 mps 764 mmHg 46%
    10:00 +7°C° 0 mm 8 mps 764 mmHg 45%
    11:00 +9°C° 0 mm 8 mps 765 mmHg 44%
    12:00 +10°C° 0 mm 7 mps 765 mmHg 43%
    13:00 +10°C° 0 mm 7 mps 765 mmHg 43%
    14:00 +11°C° 0 mm 7 mps 765 mmHg 43%
    15:00 +11°C° 0 mm 7 mps 765 mmHg 43%
    16:00 +12°C° 0 mm 5 mps 765 mmHg 46%
    17:00 +12°C° 0 mm 4 mps 765 mmHg 50%
    18:00 +11°C° 0 mm 3 mps 765 mmHg 54%
    19:00 +10°C° 0 mm 3 mps 765 mmHg 57%
    20:00 +8°C° 0 mm 3 mps 766 mmHg 61%
    21:00 +7°C° 0 mm 2 mps 766 mmHg 65%
    22:00 +7°C° 0 mm 2 mps 766 mmHg 66%
    23:00 +6°C° 0 mm 2 mps 766 mmHg 67%

    Tomorrow, 27 May, Sunday

    Time Temperature Precipitation Wind Pressure Humidity
    00:00 +6°C° 0 mm 2 mps 766 mmHg 68%
    01:00 +6°C° 0 mm 2 mps 766 mmHg 69%
    02:00 +5°C° 0 mm 2 mps 766 mmHg 70%
    03:00 +5°C° 0 mm 2 mps 766 mmHg 71%
    04:00 +7°C° 0 mm 3 mps 766 mmHg 68%
    05:00 +7°C° 0 mm 4 mps 765 mmHg 65%
    06:00 +9°C° 0 mm 5 mps 765 mmHg 62%
    07:00 +10°C° 0 mm 5 mps 765 mmHg 59%
    08:00 +13°C° 0 mm 6 mps 764 mmHg 55%
    09:00 +15°C° 0 mm 6 mps 764 mmHg 52%
    10:00 +16°C° 0 mm 7 mps 763 mmHg 51%
    11:00 +17°C° 0 mm 7 mps 762 mmHg 51%
    12:00 +18°C° 0 mm 7 mps 762 mmHg 50%
    13:00 +18°C° 0 mm 8 mps 761 mmHg 51%
    14:00 +20°C° 0 mm 8 mps 760 mmHg 52%
    15:00 +20°C° 0 mm 8 mps 759 mmHg 53%
    16:00 +18°C° 0 mm 7 mps 758 mmHg 57%
    17:00 +17°C° 0 mm 6 mps 758 mmHg 60%
    18:00 +17°C° 0 mm 6 mps 757 mmHg 64%
    19:00 +16°C° 0 mm 6 mps 756 mmHg 65%
    20:00 +15°C° 0 mm 6 mps 756 mmHg 65%
    21:00 +15°C° 0 mm 7 mps 755 mmHg 65%
    22:00 +14°C° 1.2 mm 7 mps 755 mmHg 74%
    23:00 +12°C° 1.2 mm 7 mps 754 mmHg 82%

    Day after tomorrow, 28 May, Monday

    Time Temperature Precipitation Wind Pressure Humidity
    00:00 +11°C° 1.2 mm 7 mps 754 mmHg 91%
    01:00 +10°C° 0.3 mm 6 mps 754 mmHg 91%
    02:00 +9°C° 0.3 mm 6 mps 754 mmHg 91%
    03:00 +9°C° 0.3 mm 5 mps 755 mmHg 90%
    04:00 +8°C° 0 mm 5 mps 755 mmHg 86%
    05:00 +8°C° 0 mm 6 mps 756 mmHg 81%
    06:00 +8°C° 0 mm 6 mps 756 mmHg 77%
    07:00 +9°C° 0 mm 7 mps 757 mmHg 69%
    08:00 +10°C° 0 mm 7 mps 757 mmHg 62%
    09:00 +10°C° 0 mm 8 mps 757 mmHg 54%
    10:00 +10°C° 0 mm 8 mps 757 mmHg 53%
    11:00 +10°C° 0 mm 8 mps 758 mmHg 51%
    12:00 +10°C° 0 mm 8 mps 758 mmHg 49%
    13:00 +10°C° 0 mm 8 mps 758 mmHg 49%
    14:00 +10°C° 0 mm 8 mps 758 mmHg 49%
    15:00 +10°C° 0 mm 7 mps 758 mmHg 49%
    16:00 +9°C° 0 mm 7 mps 758 mmHg 51%
    17:00 +9°C° 0 mm 6 mps 758 mmHg 53%
    18:00 +8°C° 0 mm 6 mps 758 mmHg 56%
    19:00 +7°C° 0 mm 5 mps 759 mmHg 58%
    20:00 +6°C° 0 mm 4 mps 759 mmHg 61%
    21:00 +5°C° 0 mm 4 mps 759 mmHg 64%
    22:00 +4°C° 0 mm 4 mps 759 mmHg 66%
    23:00 +4°C° 0 mm 4 mps 759 mmHg 67%

    29 May, Tuesday

    Time Temperature Precipitation Wind Pressure Humidity
    00:00 +3°C° 0 mm 4 mps 759 mmHg 69%
    01:00 +3°C° 0 mm 3 mps 759 mmHg 71%
    02:00 +2°C° 0 mm 3 mps 759 mmHg 72%
    03:00 +2°C° 0 mm 3 mps 759 mmHg 73%
    04:00 +3°C° 0 mm 4 mps 759 mmHg 70%
    05:00 +5°C° 0 mm 4 mps 759 mmHg 67%
    06:00 +6°C° 0 mm 5 mps 759 mmHg 63%
    07:00 +8°C° 0 mm 5 mps 758 mmHg 60%
    08:00 +9°C° 0 mm 5 mps 758 mmHg 56%
    09:00 +11°C° 0 mm 6 mps 758 mmHg 53%
    10:00 +11°C° 0.2 mm 6 mps 757 mmHg 54%
    11:00 +13°C° 0.2 mm 6 mps 757 mmHg 56%
    12:00 +13°C° 0.2 mm 6 mps 756 mmHg 57%
    13:00 +13°C° 0.4 mm 6 mps 756 mmHg 59%
    14:00 +13°C° 0.4 mm 5 mps 755 mmHg 61%
    15:00 +13°C° 0.4 mm 5 mps 755 mmHg 62%
    16:00 +13°C° 0.2 mm 5 mps 755 mmHg 67%
    17:00 +12°C° 0.2 mm 4 mps 754 mmHg 71%
    18:00 +11°C° 0.2 mm 4 mps 754 mmHg 76%
    19:00 +10°C° 0.1 mm 3 mps 754 mmHg 80%
    20:00 +9°C° 0.1 mm 3 mps 755 mmHg 85%
    21:00 +7°C° 0.1 mm 3 mps 755 mmHg 89%
    22:00 +7°C° 0 mm 3 mps 755 mmHg 89%
    23:00 +7°C° 0 mm 3 mps 755 mmHg 89%

    30 May, Wednesday

    Time Temperature Precipitation Wind Pressure Humidity
    00:00 +5°C° 0 mm 3 mps 755 mmHg 90%
    01:00 +5°C° 0 mm 3 mps 755 mmHg 90%
    02:00 +5°C° 0 mm 3 mps 755 mmHg 91%
    03:00 +4°C° 0 mm 3 mps 755 mmHg 91%
    04:00 +5°C° 0 mm 3 mps 755 mmHg 88%
    05:00 +8°C° 0 mm 3 mps 755 mmHg 84%
    06:00 +9°C° 0 mm 3 mps 755 mmHg 80%
    07:00 +10°C° 0 mm 3 mps 755 mmHg 72%
    08:00 +12°C° 0 mm 4 mps 755 mmHg 63%
    09:00 +13°C° 0 mm 4 mps 755 mmHg 55%
    10:00 +14°C° 0 mm 4 mps 754 mmHg 53%
    11:00 +14°C° 0 mm 4 mps 754 mmHg 52%
    12:00 +14°C° 0 mm 4 mps 754 mmHg 50%
    13:00 +14°C° 0 mm 4 mps 754 mmHg 55%
    14:00 +14°C° 0 mm 3 mps 754 mmHg 60%
    15:00 +13°C° 0 mm 3 mps 753 mmHg 65%
    16:00 +13°C° 0 mm 3 mps 753 mmHg 68%
    17:00 +12°C° 0 mm 3 mps 754 mmHg 70%
    18:00 +12°C° 0 mm 3 mps 754 mmHg 73%
    19:00 +10°C° 0 mm 2 mps 754 mmHg 78%
    20:00 +9°C° 0 mm 2 mps 754 mmHg 83%
    21:00 +7°C° 0 mm 2 mps 754 mmHg 88%
    22:00 +7°C° 0 mm 2 mps 754 mmHg 89%
    23:00 +6°C° 0 mm 2 mps 754 mmHg 90%

    31 May, Thursday

    Time Temperature Precipitation Wind Pressure Humidity
    00:00 +6°C° 0 mm 2 mps 754 mmHg 91%
    01:00 +6°C° 0 mm 2 mps 753 mmHg 91%
    02:00 +6°C° 0 mm 2 mps 753 mmHg 92%
    03:00 +5°C° 0 mm 2 mps 753 mmHg 92%
    04:00 +7°C° 0 mm 3 mps 752 mmHg 88%
    05:00 +7°C° 0 mm 4 mps 752 mmHg 84%
    06:00 +9°C° 0 mm 5 mps 751 mmHg 79%
    07:00 +9°C° 0.4 mm 5 mps 750 mmHg 82%
    08:00 +10°C° 0.4 mm 5 mps 749 mmHg 86%
    09:00 +12°C° 0.4 mm 5 mps 749 mmHg 89%
    10:00 +14°C° 0.4 mm 6 mps 748 mmHg 83%
    11:00 +15°C° 0.4 mm 6 mps 747 mmHg 78%
    12:00 +17°C° 0.4 mm 7 mps 746 mmHg 72%
    13:00 +14°C° 2.3 mm 7 mps 746 mmHg 79%
    14:00 +11°C° 2.3 mm 6 mps 746 mmHg 85%
    15:00 +8°C° 2.3 mm 6 mps 746 mmHg 92%
    16:00 +9°C° 0.5 mm 5 mps 746 mmHg 86%
    17:00 +9°C° 0.5 mm 5 mps 747 mmHg 81%
    18:00 +11°C° 0.5 mm 4 mps 748 mmHg 75%
    19:00 +10°C° 0 mm 4 mps 748 mmHg 78%
    20:00 +7°C° 0 mm 4 mps 748 mmHg 80%
    21:00 +7°C° 0 mm 3 mps 748 mmHg 82%
    22:00 +5°C° 0 mm 4 mps 749 mmHg 82%
    23:00 +5°C° 0 mm 4 mps 749 mmHg 82%
    Show more